Regional Weather Roundup
Issued by NWS

Home | Current Version | Previous Version | Graphics & Text | Print | Product List | Glossary On
Versions: 1 2 3 4 5 6 7 8 9 10 11 12 13 14 15 16 17 18 19 20 21 22 23 24 25 26 27 28 29 30 31 32 33 34 35 36 37 38 39 40 41 42 43 44 45 46 47 48 49 50
000
ASUS43 KTOP 261508
RWRKS

WEATHER ROUNDUP FOR KANSAS
NATIONAL WEATHER SERVICE GOODLAND KS
1000 AM CDT SAT JUL 26 2014

NOTE:  "FAIR" INDICATES FEW OR NO CLOUDS BELOW 12,000 FEET WITH NO
SIGNIFICANT WEATHER AND/OR OBSTRUCTIONS TO VISIBILITY.

KSZ001>006-013>018-027>032-041>047-261600-
NORTHWEST KANSAS

CITY           SKY/WX    TMP DP  RH WIND       PRES   REMARKS
GOODLAND       SUNNY     83  66  56 NW8       30.01R
HAYS           MOSUNNY   82  70  65 N9        29.89S
HILL CITY      SUNNY     85  66  53 VRB3      29.91S
RUSSELL        MOSUNNY   86  67  52 N5        29.86S
$$

KSZ061>065-074>080-084>089-261600-
SOUTHWEST KANSAS

CITY           SKY/WX    TMP DP  RH WIND       PRES   REMARKS
DODGE CITY     MOSUNNY   83  64  52 W10       29.93R
ELKHART          N/A     85  55  35 W6          N/A
GARDEN CITY    MOSUNNY   83  67  58 SW7       29.95R
GREAT BEND     PTSUNNY   84  61  45 SW9       29.86S
LIBERAL        SUNNY     84  54  34 SW9       30.00S
PRATT          MOSUNNY   86  55  35 SW15G23   29.90S
$$

KSZ066>073-081>083-090>101-261600-
SOUTHEAST KANSAS

CITY           SKY/WX    TMP DP  RH WIND       PRES   REMARKS
CHANUTE        MOSUNNY   84  70  62 SW15G26   29.89F
COFFEYVILLE    SUNNY     85  72  65 SW13      29.92R
HUTCHINSON     CLOUDY    83  62  49 S12       29.87S
MEDICINE LODGE   N/A     85  65  51 S8        29.89R
NEWTON         CLOUDY    81  61  50 S15       29.91F
PARSONS        MOSUNNY   85  70  60 S15G22    29.92F
WICHITA INTL   CLOUDY    85  65  51 S15       29.88S
WICHITA JABRA  PTSUNNY   84  67  56 SW16      29.88F
WICHITA MCCONL PTSUNNY   84  67  56 S14       29.90R
WINFIELD       MOSUNNY   85  69  58 SW16      29.91S
$$

KSZ007>012-019>026-033>040-048>060-102>105-261600-
NORTHEAST KANSAS

CITY           SKY/WX    TMP DP  RH WIND       PRES   REMARKS
CONCORDIA      PTSUNNY   88  71  57 VRB5      29.84R
EMPORIA        PTSUNNY   86  65  49 SW15      29.86S
LAWRENCE       CLOUDY    86  69  56 SW8       29.84R
MANHATTAN      LGT RAIN  80  64  58 SW6       29.84R
MARYSVILLE     CLOUDY    73  70  88 SW3       29.82R
OLATHE IND     CLOUDY    82  69  64 S13       29.86R
OLATHE EXE     CLOUDY    82  69  64 SW9       29.86R
SALINA         CLOUDY    81  61  50 S14       29.83F
TOPEKA BILLARD PTSUNNY   87  68  52 VRB5      29.83S
TOPEKA FORBES  PTSUNNY   86  66  51 SW9       29.84R
$$



USA.gov is the U.S. government's official web portal to all federal, state and local government web resources and services.